Weather History for Pompano Beach, FL

Change the Weather History Date:

Sunday, August 31, 2014

  Actual Average Record
Temperature  
Mean Temperature 86 °F -  
Max Temperature 90 °F 91 °F 95 °F (1966)
Min Temperature 82 °F 74 °F 68 °F (1977)
Cooling Degree Days 20    
Growing Degree Days 36 (Base 50)    
Moisture  
Dew Point 74 °F    
Average Humidity 68    
Maximum Humidity 72    
Minimum Humidity 61    
Precipitation  
Precipitation 0.01 in - - ()
Sea Level Pressure  
Sea Level Pressure 30.10 in    
Wind  
Wind Speed 8 mph (ESE)    
Max Wind Speed 17 mph    
Max Gust Speed -    
Visibility 10 miles    
Events      
Averages and records for this station are not official NWS values.
T = Trace of Precipitation, MM = Missing Value Source: NWS Daily Summary

Daily Weather History Graph

Daily Weather History Graph

Search for Another Location

Airport:

Trip Planner

Search our weather history database for the weather conditions in past years. The results will help you decide how hot, cold, wet, or windy it might be!

Date:

Astronomy

Aug. 31, 2014 Rise Set
Actual Time 6:59 AM EDT 7:41 PM EDT
Civil Twilight 6:36 AM EDT 8:04 PM EDT
Nautical Twilight 6:08 AM EDT 8:32 PM EDT
Astronomical Twilight 5:40 AM EDT 9:00 PM EDT
Moon 12:10 PM EDT (8/31) 11:30 PM EDT (8/31)
Length of Visible Light 13h 28m
Length of Day
12h 41m
Waxing Crescent, 32% of the Moon is Illuminated
Aug 31
Waxing Crescent
Sep 2
First Quarter
Sep 8
Full
Sep 15
Last Quarter
Sep 24
New

Hourly Weather History & Observations

Time (EDT) Temp. Heat Index Dew Point Humidity Pressure Visibility Wind Dir Wind Speed Gust Speed Precip Events Conditions
12:53 AM 82.9 °F 88.8 °F 73.0 °F 72% 30.11 in 10.0 mi ENE 4.6 mph - 0.01 in   Clear
1:53 AM 84.9 °F 93.3 °F 75.0 °F 72% 30.11 in 10.0 mi SE 5.8 mph - N/A   Clear
2:53 AM 84.9 °F 93.3 °F 75.0 °F 72% 30.09 in 10.0 mi ESE 9.2 mph - N/A   Partly Cloudy
3:53 AM 84.9 °F 93.3 °F 75.0 °F 72% 30.09 in 10.0 mi ESE 6.9 mph - N/A   Partly Cloudy
4:53 AM 84.0 °F 91.2 °F 73.9 °F 72% 30.09 in 10.0 mi East 8.1 mph - N/A   Unknown
5:53 AM 84.0 °F 90.2 °F 73.0 °F 69% 30.10 in 10.0 mi East 6.9 mph - N/A   Unknown
6:53 AM 84.9 °F 91.4 °F 73.0 °F 67% 30.10 in 10.0 mi East 9.2 mph - N/A   Unknown
7:53 AM 84.9 °F 92.1 °F 73.9 °F 69% 30.11 in 10.0 mi East 8.1 mph - N/A   Scattered Clouds
8:53 AM 87.1 °F 95.4 °F 73.9 °F 65% 30.11 in 10.0 mi East 9.2 mph - N/A   Scattered Clouds
9:53 AM 88.0 °F 96.5 °F 73.9 °F 63% 30.12 in 10.0 mi ESE 11.5 mph - N/A   Scattered Clouds
10:53 AM 89.1 °F 98.0 °F 73.9 °F 61% 30.13 in 10.0 mi East 13.8 mph - N/A   Scattered Clouds
11:53 AM 90.0 °F 100.2 °F 75.0 °F 61% 30.12 in - North - - N/A   Unknown
12:53 PM - - - N/A% 30.13 in - North - - N/A   Unknown
1:53 PM - - - N/A% 30.12 in - North - - N/A   Unknown
2:53 PM - - - N/A% 30.10 in - North - - N/A   Unknown
3:53 PM - - - N/A% 30.08 in 10.0 mi ESE 13.8 mph - N/A   Partly Cloudy
4:53 PM - - - N/A% 30.07 in 10.0 mi ESE 12.7 mph - N/A   Scattered Clouds
5:53 PM - - - N/A% 30.07 in 10.0 mi ESE 17.3 mph - N/A   Partly Cloudy
6:53 PM - - - N/A% 30.08 in - North - - N/A   Unknown
7:53 PM - - - N/A% 30.08 in 10.0 mi ESE 11.5 mph - N/A   Scattered Clouds
8:53 PM - - - N/A% 30.09 in - North - - N/A   Unknown
10:53 PM - - - N/A% 30.11 in - North - - N/A   Unknown
11:53 PM - - - N/A% 30.11 in - North - - N/A   Unknown